| time (UTC) | temp F | wind direction | speed knots | gust knots | rain 1hr in | rain 24hr in | rain mn in | humidity % | barometer mb |
| 20260505193730 | 46 | 269 | 0.9 | 1.7 | 0.00 | 0.00 | 0.00 | 89 | 924.6 |
| 20260505190730 | 50 | 62 | 0.0 | 0.0 | 0.00 | 0.00 | 0.00 | 81 | 924.4 |
| 20260505183729 | 52 | 249 | 0.9 | 1.7 | 0.00 | 0.00 | 0.00 | 75 | 924.2 |
| 20260505180729 | 53 | 234 | 1.7 | 3.5 | 0.00 | 0.00 | 0.00 | 74 | 924.0 |
| 20260505173730 | 55 | 238 | 2.6 | 5.2 | 0.00 | 0.00 | 0.00 | 72 | 924.2 |
| 20260505170730 | 54 | 293 | 4.3 | 8.7 | 0.00 | 0.00 | 0.00 | 78 | 924.6 |
| 20260505163730 | 56 | 272 | 1.7 | 4.3 | 0.00 | 0.00 | 0.00 | 81 | 924.4 |
| 20260505160730 | 53 | 243 | 0.9 | 2.6 | 0.00 | 0.00 | 0.00 | 85 | 924.2 |
| 20260505150730 | 55 | 293 | 4.3 | 9.6 | 0.00 | 0.00 | 0.00 | 87 | 924.2 |
| 20260505123730 | 55 | 280 | 2.6 | 6.1 | 0.00 | 0.00 | 0.00 | 84 | 924.2 |
| 20260505120730 | 55 | 305 | 3.5 | 5.2 | 0.00 | 0.00 | 0.00 | 87 | 924.1 |
| 20260505113730 | 55 | 296 | 3.5 | 7.0 | 0.00 | 0.00 | 0.00 | 85 | 924.2 |
| 20260505110730 | 54 | 261 | 1.7 | 4.3 | 0.00 | 0.00 | 0.00 | 91 | 924.2 |
| 20260505100730 | 53 | 287 | 2.6 | 5.2 | 0.00 | 0.00 | 0.00 | 93 | 924.1 |
| 20260505093729 | 52 | 328 | 1.7 | 4.3 | 0.00 | 0.00 | 0.00 | 94 | 924.1 |
| 20260505090730 | 52 | 289 | 1.7 | 3.5 | 0.00 | 0.00 | 0.00 | 91 | 924.1 |
| 20260505083730 | 53 | 146 | 0.0 | 1.7 | 0.00 | 0.00 | 0.00 | 90 | 923.9 |
| 20260505080730 | 53 | 199 | 0.0 | 0.9 | 0.00 | 0.00 | 0.00 | 93 | 924.1 |
| 20260505073729 | 51 | 113 | 0.0 | 1.7 | 0.00 | 0.00 | 0.00 | 94 | 924.3 |
| 20260505070730 | 50 | 257 | 1.7 | 5.2 | 0.00 | 0.00 | 0.00 | 96 | 924.7 |
| 20260505063729 | 49 | 276 | 2.6 | 7.0 | 0.00 | 0.00 | 0.00 | 96 | 924.9 |
| 20260505060730 | 48 | 289 | 2.6 | 5.2 | 0.00 | 0.00 | 0.00 | 96 | 925.1 |
| 20260505053729 | 48 | 290 | 3.5 | 7.0 | 0.00 | 0.00 | 0.00 | 97 | 925.2 |
| 20260505050730 | 48 | 281 | 3.5 | 8.7 | 0.00 | 0.00 | 0.00 | 97 | 925.0 |
| 20260505040729 | 47 | 93 | 0.9 | 1.7 | 0.00 | 0.00 | 0.00 | 97 | 925.1 |
| 20260505033729 | 47 | 142 | 0.0 | 0.9 | 0.00 | 0.00 | 0.00 | 97 | 925.2 |
| 20260505030730 | 47 | 238 | 0.0 | 0.0 | 0.00 | 0.00 | 0.00 | 97 | 925.2 |
| 20260505023730 | 47 | 264 | 0.9 | 1.7 | 0.00 | 0.00 | 0.00 | 97 | 925.6 |
| 20260505020730 | 46 | 280 | 0.0 | 0.0 | 0.00 | 0.00 | 0.00 | 97 | 925.6 |
| 20260505013730 | 46 | 243 | 0.9 | 1.7 | 0.00 | 0.00 | 0.00 | 97 | 925.9 |
| 20260505010730 | 45 | 315 | 0.0 | 0.9 | 0.00 | 0.00 | 0.00 | 97 | 925.9 |
| 20260505003729 | 46 | 290 | 0.0 | 1.7 | 0.00 | 0.00 | 0.00 | 97 | 926.4 |
| 20260505000729 | 45 | 155 | 0.0 | 0.9 | 0.00 | 0.00 | 0.00 | 97 | 926.7 |
| 20260504233730 | 46 | 306 | 0.9 | 3.5 | 0.00 | 0.00 | 0.00 | 96 | 927.0 |
| 20260504230730 | 44 | 19 | 0.0 | 0.0 | 0.00 | 0.00 | 0.00 | 96 | 927.4 |
| 20260504223729 | 43 | 50 | 0.0 | 0.9 | 0.00 | 0.00 | 0.00 | 95 | 927.5 |
| 20260504220730 | 42 | 198 | 0.9 | 2.6 | 0.00 | 0.00 | 0.00 | 95 | 927.6 |
| 20260504213730 | 41 | 176 | 0.0 | 0.0 | 0.00 | 0.00 | 0.00 | 94 | 927.8 |
| 20260504210729 | 43 | 122 | 0.9 | 1.7 | 0.00 | 0.00 | 0.00 | 94 | 928.0 |
| 20260504203729 | 45 | 288 | 0.9 | 1.7 | 0.00 | 0.00 | 0.00 | 93 | 928.3 |
| 20260504200729 | 48 | 129 | 0.0 | 0.0 | 0.00 | 0.00 | 0.00 | 92 | 928.3 |